Flag for Italy Weather past 2 weeks in Varese, Italy

Now
60 °F

Cool.


Feels Like: 60 °F
Forecast: 47 / 71 °F
Wind: 5 mph from West

Location: Stabio

Current Time: May 26, 2015 at 6:12:58 AM

Latest Report: May 26, 2015 at 4:00 AM


Visibility: N/A

Pressure: 29.81 "Hg

Humidity: 65%

Dew point: 48 °F

Location of VareseLocation

Historic Weather in Varese — Graph

°F

Varese temperature yesterday

Maximum temperature yesterday: 74 °F (at 3:00 PM)
Minimum temperature yesterday: 48 °F (at 4:00 AM)
Average temperature yesterday: 60 °F

Past Weeks' High & Low Weather Summary

 TemperatureHumidityPressure
High79 °F (May 14, 3:00 PM)100% (May 17, 6:00 AM)30.31 "Hg (May 17, 6:00 AM)
Low43 °F (May 22, 4:00 AM)30% (May 22, 2:00 PM)29.56 "Hg (May 15, 2:00 PM)
Average61 °F75%29.95 "Hg
* Reported May 11 4:00 AM — May 26 4:00 AM, Varese, Weather by CustomWeather, © 2015

Note: Actual official high and low records may vary slightly from our data, if they occured in-between our weather recording intervals... More about our weather records

Advertising

Varese weather history for previous 24 hours

 ConditionsComfort  
Time TempWeatherWind HumidityBarometerVisibility
4:00 AM
Tue, May 26
60 °FCool.5 mph65%29.81 "HgN/A
3:00 AM57 °FCool.3 mph81%29.81 "HgN/A
2:00 AM58 °FCool.2 mph82%29.81 "HgN/A
1:00 AM57 °FCool.No wind84%29.83 "HgN/A
12:00 AM57 °FCool.1 mph81%29.84 "HgN/A
10:40 PM
Mon, May 25
63 °FMild.2 mph64%29.82 "HgN/A
10:00 PM65 °FMild.2 mph59%29.80 "HgN/A
9:00 PM62 °FCool.1 mph69%29.80 "HgN/A
8:00 PM67 °FMild.2 mph52%29.78 "HgN/A
7:00 PM71 °FMild.6 mph50%29.77 "HgN/A
6:00 PM71 °FMild.6 mph52%29.78 "HgN/A
5:00 PM72 °FMild.6 mph50%29.79 "HgN/A
4:00 PM71 °FMild.9 mph49%29.81 "HgN/A
3:00 PM74 °FMild.8 mph53%29.81 "HgN/A
2:00 PM69 °FMild.3 mph57%29.85 "HgN/A
1:00 PM66 °FMild.3 mph66%29.87 "HgN/A
12:00 PM65 °FMild.3 mph69%29.90 "HgN/A
11:00 AM63 °FMild.3 mph74%29.91 "HgN/A
10:00 AM62 °FCool.No wind74%29.92 "HgN/A
9:00 AM59 °FCool.2 mph80%29.93 "HgN/A
8:00 AM55 °FCool.No wind94%29.95 "HgN/A
7:00 AM51 °FCool.No wind95%29.96 "HgN/A
6:40 AM50 °FCool.No wind95%29.97 "HgN/A
6:00 AM49 °FCool.No wind99%29.97 "HgN/A
Weather by CustomWeather, © 2015

See weather overviewHow to use our weather pages